Tracking 28091 objects as of 30-Sep-2023
HD Live streaming from Space Station
objects crossing your sky now

STARLINK-5336

Track STARLINK-5336 now!
10-day predictions
STARLINK-5336 is classified as:


NORAD ID: 57138
Int'l Code: 2023-090AP
Perigee: 559.8 km
Apogee: 562.6 km
Inclination: 43.0 °
Period: 95.7 minutes
Semi major axis: 6932 km
RCS: Unknown
Launch date: June 23, 2023
Source: United States (US)
Launch site: AIR FORCE EASTERN TEST RANGE (AFETR)
Your satellite tracking list
Your tracking list is empty




NASA's NSSDC Master Catalog

Two Line Element Set (TLE):
1 57138U 23090AP  23273.45612446 -.00044529  00000-0 -31607-2 0  9992
2 57138  42.9974  64.7755 0002051 250.5960 109.4661 15.04175097 15350
Source of the keplerian elements: AFSPC